Weather History for KDUC - September, 2013

Change the Weather History Date:

Wednesday, September 25, 2013

  Actual Average (KLAW) Record (KLAW)
Temperature  
Mean Temperature 71 °F -  
Max Temperature 89 °F 82 °F 97 °F (1951)
Min Temperature 53 °F 58 °F 43 °F (1975)
Cooling Degree Days 6    
Growing Degree Days 21 (Base 50)    
Moisture  
Dew Point 51 °F    
Average Humidity 50    
Maximum Humidity 88    
Minimum Humidity 27    
Precipitation  
Precipitation 0.00 in - - ()
Sea Level Pressure  
Sea Level Pressure 29.86 in    
Wind  
Wind Speed 1 mph (SSE)    
Max Wind Speed 13 mph    
Max Gust Speed 18 mph    
Visibility 10 miles    
Events      
Averages and records for this station are not official NWS values.
T = Trace of Precipitation, MM = Missing Value Source: NWS Daily Summary

Daily Weather History Graph

Daily Weather History Graph

Search for Another Location

Airport or City:

Trip Planner

Search our weather history database for the weather conditions in past years. The results will help you decide how hot, cold, wet, or windy it might be!

Date:

Astronomy

Sep. 25, 2013 Rise Set
Actual Time 7:22 AM CDT 7:23 PM CDT
Civil Twilight 6:57 AM CDT 7:49 PM CDT
Nautical Twilight 6:27 AM CDT 8:18 PM CDT
Astronomical Twilight 5:58 AM CDT 8:47 PM CDT
Moon 11:44 PM CDT (9/25) 1:15 PM CDT (9/25)
Length of Visible Light 12h 51m
Length of Day
12h 01m
Waning Gibbous, 64% of the Moon is Illuminated
Sep 25
Waning Gibbous
Sep 26
Last Quarter
Oct 4
New
Oct 11
First Quarter
Oct 18
Full

Hourly Weather History & Observations

Time (CDT) Temp. Heat Index Dew Point Humidity Pressure Visibility Wind Dir Wind Speed Gust Speed Precip Events Conditions
12:15 AM 62.6 °F - 50.0 °F 63% 29.91 in 10.0 mi Calm Calm - N/A   Clear
12:35 AM 62.6 °F - 50.0 °F 63% 29.91 in 10.0 mi Calm Calm - N/A   Clear
12:55 AM 60.8 °F - 50.0 °F 68% 29.91 in 10.0 mi Calm Calm - N/A   Clear
1:15 AM 62.6 °F - 50.0 °F 63% 29.91 in 10.0 mi Calm Calm - N/A   Clear
1:35 AM 62.6 °F - 50.0 °F 63% 29.91 in 10.0 mi Calm Calm - N/A   Clear
1:55 AM 59.0 °F - 51.8 °F 77% 29.90 in 10.0 mi Calm Calm - N/A   Clear
2:15 AM 59.0 °F - 51.8 °F 77% 29.90 in 10.0 mi Calm Calm - N/A   Clear
2:35 AM 59.0 °F - 50.0 °F 72% 29.90 in 10.0 mi Calm Calm - N/A   Clear
2:55 AM 57.2 °F - 51.8 °F 82% 29.90 in 10.0 mi Calm Calm - N/A   Clear
3:15 AM 59.0 °F - 50.0 °F 72% 29.90 in 10.0 mi Calm Calm - N/A   Clear
3:35 AM 55.4 °F - 50.0 °F 82% 29.90 in 10.0 mi Calm Calm - N/A   Clear
3:55 AM 57.2 °F - 50.0 °F 77% 29.89 in 10.0 mi Calm Calm - N/A   Clear
4:15 AM 57.2 °F - 48.2 °F 72% 29.89 in 10.0 mi Calm Calm - N/A   Clear
4:35 AM 59.0 °F - 46.4 °F 63% 29.89 in 10.0 mi Calm Calm - N/A   Clear
4:55 AM 60.8 °F - 46.4 °F 59% 29.89 in 10.0 mi Calm Calm - N/A   Clear
5:15 AM 53.6 °F - 50.0 °F 88% 29.89 in 10.0 mi Calm Calm - N/A   Clear
5:35 AM 55.4 °F - 50.0 °F 82% 29.90 in 10.0 mi Calm Calm - N/A   Clear
5:55 AM 55.4 °F - 50.0 °F 82% 29.90 in 10.0 mi Calm Calm - N/A   Clear
6:15 AM 57.2 °F - 50.0 °F 77% 29.90 in 10.0 mi Calm Calm - N/A   Clear
6:35 AM 59.0 °F - 48.2 °F 67% 29.90 in 10.0 mi Calm Calm - N/A   Clear
6:55 AM 57.2 °F - 50.0 °F 77% 29.90 in 10.0 mi Calm Calm - N/A   Clear
7:15 AM 57.2 °F - 50.0 °F 77% 29.90 in 10.0 mi Calm Calm - N/A   Clear
7:35 AM 53.6 °F - 50.0 °F 88% 29.91 in 10.0 mi Calm Calm - N/A   Clear
7:55 AM 57.2 °F - 50.0 °F 77% 29.91 in 10.0 mi Calm Calm - N/A   Clear
8:15 AM 60.8 °F - 51.8 °F 72% 29.92 in 10.0 mi Calm Calm - N/A   Clear
8:35 AM 62.6 °F - 51.8 °F 68% 29.91 in 10.0 mi Calm Calm - N/A   Clear
8:55 AM 64.4 °F - 53.6 °F 68% 29.91 in 10.0 mi Calm Calm - N/A   Clear
9:15 AM 66.2 °F - 55.4 °F 68% 29.92 in 10.0 mi Calm Calm - N/A   Clear
9:35 AM 69.8 °F - 55.4 °F 60% 29.92 in 10.0 mi Calm Calm - N/A   Clear
9:55 AM 71.6 °F - 53.6 °F 53% 29.93 in 10.0 mi Calm Calm - N/A   Clear
10:15 AM 71.6 °F - 55.4 °F 57% 29.93 in 10.0 mi Calm Calm - N/A   Clear
10:35 AM 75.2 °F - 53.6 °F 47% 29.93 in 10.0 mi Calm Calm - N/A   Clear
10:55 AM 77.0 °F - 51.8 °F 41% 29.93 in 10.0 mi Calm Calm - N/A   Clear
11:15 AM 78.8 °F - 50.0 °F 36% 29.92 in 10.0 mi Calm Calm - N/A   Clear
11:35 AM 80.6 °F - 50.0 °F 34% 29.92 in 10.0 mi Calm Calm - N/A   Clear
11:55 AM 80.6 °F - 50.0 °F 34% 29.92 in 10.0 mi Calm Calm - N/A   Clear
12:15 PM 82.4 °F - 50.0 °F 32% 29.91 in 10.0 mi South 3.5 mph - N/A   Clear
12:35 PM 82.4 °F - 48.2 °F 30% 29.90 in 10.0 mi Calm Calm - N/A   Clear
1:15 PM 86.0 °F - 50.0 °F 29% 29.88 in 10.0 mi South 5.8 mph - N/A   Clear
1:35 PM 86.0 °F - 50.0 °F 29% 29.87 in 10.0 mi South 9.2 mph - N/A   Clear
1:55 PM 86.0 °F - 50.0 °F 29% 29.86 in 10.0 mi Calm Calm - N/A   Clear
2:15 PM 86.0 °F - 50.0 °F 29% 29.85 in 10.0 mi South 9.2 mph - N/A   Clear
2:35 PM 87.8 °F - 51.8 °F 29% 29.84 in 10.0 mi South 5.8 mph - N/A   Clear
2:55 PM 87.8 °F - 51.8 °F 29% 29.82 in 10.0 mi Calm Calm - N/A   Clear
3:15 PM 89.6 °F - 51.8 °F 27% 29.81 in 10.0 mi SW 3.5 mph - N/A   Clear
3:55 PM 89.6 °F - 51.8 °F 27% 29.80 in 10.0 mi Calm Calm - N/A   Clear
4:15 PM 89.6 °F - 51.8 °F 27% 29.80 in 10.0 mi SSE 4.6 mph - N/A   Clear
4:35 PM 89.6 °F - 51.8 °F 27% 29.79 in 10.0 mi South 5.8 mph - N/A   Clear
4:55 PM 89.6 °F - 51.8 °F 27% 29.79 in 10.0 mi Calm Calm - N/A   Clear
5:15 PM 89.6 °F - 51.8 °F 27% 29.79 in 10.0 mi Calm Calm - N/A   Clear
5:35 PM 89.6 °F - 51.8 °F 27% 29.79 in 10.0 mi Calm Calm - N/A   Clear
5:55 PM 89.6 °F - 51.8 °F 27% 29.78 in 10.0 mi SE 3.5 mph - N/A   Clear
6:15 PM 87.8 °F - 51.8 °F 29% 29.77 in 10.0 mi SE 8.1 mph - N/A   Clear
6:35 PM 86.0 °F 84.2 °F 53.6 °F 33% 29.77 in 10.0 mi Calm Calm - N/A   Clear
6:55 PM 84.2 °F 82.8 °F 53.6 °F 35% 29.77 in 10.0 mi Calm Calm - N/A   Clear
7:15 PM 80.6 °F 80.3 °F 53.6 °F 39% 29.77 in 10.0 mi Calm Calm - N/A   Clear
7:35 PM 78.8 °F - 53.6 °F 42% 29.77 in 10.0 mi Calm Calm - N/A   Clear
7:55 PM 78.8 °F - 53.6 °F 42% 29.77 in 10.0 mi Calm Calm - N/A   Clear
8:15 PM 78.8 °F - 51.8 °F 39% 29.77 in 10.0 mi Calm Calm - N/A   Clear
8:35 PM 77.0 °F - 51.8 °F 41% 29.77 in 10.0 mi SE 8.1 mph - N/A   Clear
8:55 PM 78.8 °F - 50.0 °F 36% 29.77 in 10.0 mi SSE 9.2 mph - N/A   Clear
9:15 PM 78.8 °F - 50.0 °F 36% 29.77 in 10.0 mi SE 10.4 mph - N/A   Clear
9:35 PM 78.8 °F - 50.0 °F 36% 29.78 in 10.0 mi SSE 11.5 mph - N/A   Clear
9:55 PM 78.8 °F - 50.0 °F 36% 29.79 in 10.0 mi SSE 12.7 mph 18.4 mph N/A   Clear
10:15 PM 78.8 °F - 50.0 °F 36% 29.79 in 10.0 mi SSE 10.4 mph - N/A   Clear
10:35 PM 78.8 °F - 50.0 °F 36% 29.79 in 10.0 mi SSE 11.5 mph 16.1 mph N/A   Clear
10:55 PM 77.0 °F - 50.0 °F 39% 29.79 in 10.0 mi SSE 8.1 mph - N/A   Clear
11:15 PM 77.0 °F - 50.0 °F 39% 29.79 in 10.0 mi SSE 9.2 mph - N/A   Clear
11:35 PM 77.0 °F - 50.0 °F 39% 29.79 in 10.0 mi SSE 9.2 mph - N/A   Clear
11:55 PM 77.0 °F - 50.0 °F 39% 29.79 in 10.0 mi SSE 11.5 mph 17.3 mph N/A   Clear